Weather History for Guatemala Aeropuertola Aurora, Guatemala

Change the Weather History Date:

Friday, August 30, 2013

  Actual Average Record
Temperature  
Mean Temperature 68 °F -  
Max Temperature 75 °F 74 °F - ()
Min Temperature 60 °F 60 °F - ()
Cooling Degree Days 2    
Growing Degree Days 18 (Base 50)    
Moisture  
Dew Point 62 °F    
Average Humidity 85    
Maximum Humidity 100    
Minimum Humidity 32    
Precipitation  
Precipitation 0.00 in - - ()
Sea Level Pressure  
Sea Level Pressure 30.24 in    
Wind  
Wind Speed 6 mph ()    
Max Wind Speed 12 mph    
Max Gust Speed -    
Visibility 4.5 miles    
Events Rain , Thunderstorm    
T = Trace of Precipitation, MM = Missing Value Source: Averaged Metar Reports

Daily Weather History Graph

Daily Weather History Graph

Search for Another Location

Airport:

Trip Planner

Search our weather history database for the weather conditions in past years. The results will help you decide how hot, cold, wet, or windy it might be!

Date:

Astronomy

Aug. 30, 2013 Rise Set
Actual Time 5:49 AM CST 6:15 PM CST
Civil Twilight 5:28 AM CST 6:36 PM CST
Nautical Twilight 5:02 AM CST 7:02 PM CST
Astronomical Twilight 4:37 AM CST 7:27 PM CST
Moon 12:56 AM CST (8/30) 2:03 PM CST (8/30)
Length of Visible Light 13h 08m
Length of Day
12h 25m
Waning Crescent, 28% of the Moon is Illuminated
Aug 30
Waning Crescent
Sep 5
New
Sep 12
First Quarter
Sep 19
Full
Sep 26
Last Quarter

Hourly Weather History & Observations

Time (CST) Temp. Dew Point Humidity Pressure Visibility Wind Dir Wind Speed Gust Speed Precip Events Conditions
12:00 AM 64.4 °F 62.6 °F 94% 30.30 in 5.0 mi North 6.9 mph - N/A   Mostly Cloudy
1:00 AM 64.4 °F 62.6 °F 94% 30.30 in 5.0 mi North 6.9 mph - N/A   Mostly Cloudy
2:00 AM 64.4 °F 62.6 °F 94% 30.27 in 5.0 mi North 6.9 mph - N/A   Mostly Cloudy
3:00 AM 64.4 °F 62.6 °F 94% 30.24 in 6.2 mi North 9.2 mph - N/A   Mostly Cloudy
4:00 AM 64.4 °F 62.6 °F 94% 30.24 in 6.2 mi North 6.9 mph - N/A   Mostly Cloudy
5:00 AM 64.4 °F 62.6 °F 94% 30.27 in 6.2 mi NE 9.2 mph - N/A   Mostly Cloudy
5:24 AM - - N/A% - 6.2 mi NNE 6.9 mph - N/A   Mostly Cloudy
6:00 AM 63 °F 61 °F 92% 29.95 in 25 mi North 4.6 mph - -   Partly Cloudy
6:00 AM 62.6 °F 60.8 °F 94% 30.27 in 6.2 mi North 4.6 mph - N/A   Mostly Cloudy
6:34 AM - - N/A% - 6.2 mi NNE 6.9 mph - N/A   Scattered Clouds
7:00 AM 64.4 °F 60.8 °F 88% 30.27 in 6.2 mi NNE 9.2 mph - N/A   Scattered Clouds
8:00 AM 66.2 °F 62.6 °F 88% 30.30 in 6.2 mi NNE 11.5 mph - N/A   Mostly Cloudy
9:00 AM 69.8 °F 60.8 °F 73% 30.27 in 6.2 mi North 6.9 mph - N/A   Mostly Cloudy
10:00 AM 71.6 °F 60.8 °F 69% 30.30 in 6.2 mi North 6.9 mph - N/A   Mostly Cloudy
11:00 AM 75.2 °F 62.6 °F 65% 30.27 in 6.2 mi NNE 4.6 mph - N/A   Scattered Clouds
12:00 PM 75 °F 62 °F 56% 29.93 in 25 mi 3.5 mph - -   Overcast
12:00 PM 75.2 °F 62.6 °F 65% 3.02 in - Variable 3.5 mph - N/A   Scattered Clouds
12:14 PM - - N/A% - 6.2 mi South 6.9 mph - N/A   Scattered Clouds
1:00 PM 71.6 °F 64.4 °F 78% 3.02 in 6.2 mi South 11.5 mph - N/A Rain Light Rain
1:13 PM - - N/A% - 2.5 mi South 11.5 mph - N/A Rain Rain
1:30 PM - - N/A% - 2.5 mi South 6.9 mph - N/A Rain , Thunderstorm Thunderstorms and Rain
2:00 PM 66.2 °F 64.4 °F 94% 30.24 in 1.9 mi South 4.6 mph - N/A Rain , Thunderstorm Thunderstorms and Rain
3:00 PM 66.2 °F 64.4 °F 94% 30.21 in 2.5 mi South 6.9 mph - N/A   Overcast
4:00 PM 66.2 °F 64.4 °F 94% 30.18 in 2.5 mi South 4.6 mph - N/A   Mostly Cloudy
5:00 PM 68.0 °F 64.4 °F 88% 30.21 in 3.1 mi South 4.6 mph - N/A   Mostly Cloudy
5:20 PM - - N/A% - 3.1 mi South 6.9 mph - N/A   Overcast
6:00 PM 66.2 °F 64.4 °F 94% 30.24 in 4.3 mi South 4.6 mph - N/A Rain Light Rain
7:00 PM 64.4 °F 64.4 °F 100% 30.24 in 2.5 mi South 4.6 mph - N/A   Overcast
7:35 PM - - N/A% - 1.9 mi Calm Calm - N/A Rain Light Rain
8:00 PM 64.4 °F 33.8 °F 32% 30.27 in 1.9 mi Calm Calm - N/A Rain , Thunderstorm Light Thunderstorms and Rain
8:10 PM - - N/A% - 5.0 mi South 4.6 mph - N/A Rain , Thunderstorm Thunderstorms and Rain
9:00 PM 64.4 °F 62.6 °F 94% 30.27 in 3.1 mi South 4.6 mph - N/A Rain , Thunderstorm Thunderstorms and Rain
10:00 PM 62.6 °F 62.6 °F 100% 30.30 in 3.1 mi Calm Calm - N/A Rain Rain
11:00 PM 62.6 °F 62.6 °F 100% 30.30 in 3.1 mi Calm Calm - N/A Rain Rain